Date,TemperatureHighF,TemperatureAvgF,TemperatureLowF,DewpointHighF,DewpointAvgF,DewpointLowF,HumidityHigh,HumidityAvg,HumidityLow,PressureMaxIn,PressureMinIn,WindSpeedMaxMPH,WindSpeedAvgMPH,GustSpeedMaxMPH,PrecipitationSumIn
2014-2-1,48.9,34.6,24.6,24.5,20.1,14.4,75,56,37,30.12,29.82,4,1,11,0.00
2014-2-2,56.5,38.3,22.8,37.0,28.7,17.2,86,69,45,29.88,29.70,4,1,8,0.00
2014-2-3,39.7,32.0,23.0,30.8,28.1,17.8,91,86,69,30.11,29.86,2,0,5,0.01
2014-2-4,38.7,25.7,11.1,28.3,18.7,5.7,86,75,54,30.27,30.02,3,0,6,0.07
2014-2-5,34.5,32.1,28.4,31.7,28.6,20.9,91,87,68,30.07,29.61,7,1,14,0.49
2014-2-6,31.3,24.2,18.7,20.9,14.0,8.2,76,65,52,30.26,29.96,4,1,14,0.01
2014-2-7,33.8,24.9,15.3,18.2,13.4,7.9,78,62,47,30.29,30.17,8,3,20,0.00
2014-2-8,32.0,22.7,14.4,12.8,6.7,-0.3,67,50,34,30.30,30.11,6,2,11,0.01
2014-2-9,33.1,23.6,15.1,18.1,11.0,3.3,79,59,39,30.15,29.97,3,1,8,0.00
2014-2-10,31.1,21.5,8.6,16.4,6.0,-4.5,80,52,31,30.25,29.97,5,1,14,0.03
2014-2-11,27.7,15.2,0.7,5.3,-2.8,-10.1,67,46,29,30.43,30.23,4,2,14,0.00
2014-2-12,28.4,15.5,-1.8,9.9,-0.5,-13.9,61,49,33,30.53,30.22,5,2,11,0.00
2014-2-13,34.2,29.7,19.9,31.4,25.8,10.3,91,85,63,30.22,29.04,13,7,29,0.86
2014-2-14,41.9,34.4,24.3,29.8,24.8,17.7,91,69,52,29.73,29.05,14,4,32,0.16
2014-2-15,37.6,31.2,24.4,29.4,23.5,9.7,87,74,50,29.77,29.53,9,2,17,0.00
2014-2-16,29.7,24.0,18.3,10.5,7.0,2.2,55,48,36,30.11,29.77,8,2,19,0.00
2014-2-17,38.1,22.7,11.7,13.2,2.3,-2.2,56,42,27,30.38,30.10,5,2,12,0.00
2014-2-18,43.9,29.3,18.1,32.9,19.7,4.5,82,68,52,30.26,29.91,13,2,30,0.09
2014-2-19,46.4,33.0,20.5,40.2,27.2,15.3,91,79,64,30.04,29.64,5,1,15,0.25
2014-2-20,54.0,40.3,24.4,33.4,27.2,19.2,83,61,37,30.22,29.96,6,2,13,0.00
2014-2-21,44.1,37.7,31.5,43.8,36.0,29.9,99,94,75,29.96,29.58,6,2,14,0.18
2014-2-22,54.9,39.8,26.4,33.4,25.7,20.9,95,63,27,30.01,29.86,15,4,24,0.00
2014-2-23,58.5,41.2,25.9,34.8,27.1,20.2,86,60,35,29.97,29.80,6,1,17,0.00
2014-2-24,42.4,35.1,24.3,28.6,15.7,5.8,68,46,28,30.05,29.78,14,5,31,0.00
2014-2-25,35.2,26.5,16.9,17.2,10.2,3.5,61,50,39,30.05,29.89,14,4,30,0.00
2014-2-26,33.6,23.3,9.3,22.8,5.4,-9.5,76,48,24,29.92,29.77,10,2,27,0.01
2014-2-27,34.7,18.2,1.6,11.7,-1.8,-15.0,63,42,25,30.09,29.59,14,4,32,0.00
2014-2-28,29.1,15.1,5.5,1.6,-10.8,-19.9,47,30,25,30.40,30.09,7,2,16,0.00